Flag for Lithuania Weather past 2 weeks in Vilnius, Lithuania

36 °F


Feels Like: 36 °F
Forecast: 26 / 44 °F
Wind: 2 mph from North

Location: Vilnius Airport

Current Time: Oct 9, 2015 at 5:33:51 AM

Latest Report: Oct 9, 2015 at 4:50 AM

Visibility: 10 mi

Pressure: 30.27 "Hg

Humidity: 65%

Dew point: 25 °F

Location of VilniusLocation

Historic Weather in Vilnius — Graph


Vilnius temperature yesterday

Maximum temperature yesterday: 43 °F (at 11:50 AM)
Minimum temperature yesterday: 27 °F (at 4:20 AM)
Average temperature yesterday: 36 °F

Past Weeks' High & Low Weather Summary

High77 °F (Sep 24, 3:50 PM)100% (Sep 24, 6:20 AM)30.63 "Hg (Sep 24, 6:20 AM)
Low27 °F (Oct 8, 4:20 AM)42% (Oct 8, 1:50 PM)29.92 "Hg (Oct 4, 9:50 PM)
Average50 °F82%30.20 "Hg
* Reported Sep 24 4:20 AM — Oct 9 4:20 AM, Vilnius, Weather by CustomWeather, © 2015

Note: Actual official high and low records may vary slightly from our data, if they occured in-between our weather recording intervals... More about our weather records


Vilnius weather history for previous 24 hours

Time TempWeatherWind HumidityBarometerVisibility
4:20 AM
Fri, Oct 9
37 °FClear.1 mph60%30.27 "Hg10 mi
3:50 AM36 °FClear.2 mph65%30.30 "Hg10 mi
3:20 AM36 °FPassing clouds.3 mph65%30.30 "HgN/A
2:50 AM34 °FClear.5 mph75%30.30 "Hg10 mi
2:20 AM36 °FClear.5 mph75%30.30 "Hg10 mi
1:50 AM36 °FClear.5 mph75%30.30 "Hg10 mi
1:20 AM36 °FClear.5 mph70%30.30 "Hg10 mi
12:20 AM36 °FClear.3 mph70%30.30 "Hg10 mi
11:50 PM
Thu, Oct 8
37 °FClear.3 mph65%30.30 "Hg10 mi
11:20 PM37 °FClear.3 mph65%30.30 "Hg10 mi
10:50 PM37 °FClear.3 mph65%30.30 "Hg10 mi
10:20 PM37 °FClear.2 mph65%30.30 "Hg10 mi
9:50 PM37 °FClear.2 mph65%30.30 "Hg10 mi
9:20 PM37 °FClear.3 mph65%30.30 "Hg10 mi
8:50 PM37 °FClear.3 mph65%30.30 "Hg10 mi
8:20 PM37 °FClear.1 mph60%30.30 "Hg10 mi
7:50 PM39 °FClear.1 mph56%30.30 "Hg10 mi
7:20 PM39 °FSunny.2 mph52%30.30 "Hg10 mi
6:50 PM39 °FSunny.2 mph52%30.30 "Hg10 mi
6:20 PM41 °FSunny.2 mph49%30.30 "Hg10 mi
5:58 PM41 °FSunny.3 mph49%30.30 "Hg10 mi
5:20 PM41 °FSunny.2 mph53%30.30 "Hg10 mi
4:50 PM43 °FSunny.3 mph49%30.30 "Hg10 mi
4:20 PM43 °FPartly sunny.5 mph46%30.30 "HgN/A
3:50 PM43 °FPartly sunny.1 mph49%30.30 "HgN/A
3:20 PM43 °FPartly sunny.2 mph49%30.33 "HgN/A
2:50 PM43 °FPartly sunny.2 mph49%30.33 "HgN/A
2:20 PM43 °FPartly sunny.3 mph46%30.33 "HgN/A
1:50 PM43 °FPartly sunny.3 mph42%30.33 "HgN/A
1:20 PM43 °FPartly sunny.6 mph46%30.33 "HgN/A
12:50 PM43 °FPartly sunny.3 mph49%30.33 "HgN/A
12:20 PM41 °FScattered clouds.3 mph57%30.33 "HgN/A
11:50 AM43 °FPassing clouds.6 mph53%30.33 "HgN/A
11:20 AM41 °FPassing clouds.5 mph57%30.33 "HgN/A
10:50 AM41 °FSunny.3 mph66%30.33 "Hg10 mi
10:20 AM41 °FSunny.2 mph70%30.33 "Hg10 mi
9:50 AM37 °FSunny.1 mph75%30.33 "Hg10 mi
9:20 AM36 °FSunny.No wind75%30.33 "Hg10 mi
8:50 AM30 °FSunny.No wind86%30.33 "Hg10 mi
8:20 AM27 °FClear.1 mph93%30.33 "Hg10 mi
7:50 AM27 °FClear.1 mph93%30.33 "Hg10 mi
7:20 AM27 °FClear.1 mph93%30.33 "Hg10 mi
6:50 AM27 °FClear.2 mph93%30.33 "Hg10 mi
6:20 AM27 °FClear.2 mph93%30.33 "Hg10 mi
5:50 AM27 °FClear.2 mph93%30.33 "Hg10 mi
5:20 AM27 °FClear.2 mph86%30.33 "Hg10 mi
Weather by CustomWeather, © 2015

See weather overviewHow to use our weather pages